Regional Weather Roundup
Issued by NWS Charleston, WV

Home | Current Version | Previous Version | Text Only | Print | Product List | Glossary Off
Versions: 1 2 3 4 5 6 7 8 9 10 11 12 13 14 15 16 17 18 19 20 21 22 23 24 25 26 27 28 29 30 31 32 33 34 35 36 37 38 39 40 41 42 43 44 45 46 47 48 49 50

000
ASUS41 KRLX 250210
RWRRLX
West Virginia Regional Weather Roundup
National Weather Service Charleston WV
900 PM EST MON NOV 24 2014

Note: "fair" indicates few or no clouds below 12,000 feet with no
significant weather and/or obstructions to visibility.

WVZ003-250300-
Northern Panhandle of West Virginia

CITY           SKY/WX    TMP DP  RH WIND       PRES   REMARKS
WHEELING       CLEAR     44  34  67 W17G26    29.80R
$$

WVZ009-250300-
Northwest West Virginia

CITY           SKY/WX    TMP DP  RH WIND       PRES   REMARKS
PARKERSBURG    CLEAR     47  33  58 W10G24    29.87R
$$

WVZ006-250300-
Western West Virginia

CITY           SKY/WX    TMP DP  RH WIND       PRES   REMARKS
HUNTINGTON     CLEAR     45  36  70 NW7       29.89R
$$

WVZ015-250300-
West Central West Virginia

CITY           SKY/WX    TMP DP  RH WIND       PRES   REMARKS
CHARLESTON     CLEAR     53  40  61 NW14G23   29.86R
$$

WVZ022-031-250300-
North Central West Virginia

CITY           SKY/WX    TMP DP  RH WIND       PRES   REMARKS
CLARKSBURG     CLEAR     56  38  50 W14       29.79R
MORGANTOWN     CLEAR     56  31  38 VRB3      29.78R
$$

WVZ025-035-042-045-250300-
Southern West Virginia

CITY           SKY/WX    TMP DP  RH WIND       PRES   REMARKS
BECKLEY        CLEAR     55  37  50 W9        29.86R
LOGAN            N/A     57  34  41 W10       29.85R
BLUEFIELD      PTCLDY    58  39  49 W10G18    29.88R
LEWISBURG      CLEAR     58  38  47 SW6       29.84R
$$

WVZ047-250300-
Northern Mountains of West Virginia

CITY           SKY/WX    TMP DP  RH WIND       PRES   REMARKS
ELKINS         PTCLDY    57  38  48 W9G20     29.80R
$$

WVZ052-250300-
Eastern Panhandle of West Virginia

CITY           SKY/WX    TMP DP  RH WIND       PRES   REMARKS
MARTINSBURG    PTCLDY    61  47  59 S5        29.70R
PETERSBURG     CLEAR     64  38  38 W16G23    29.74R
$$


USA.gov is the U.S. government's official web portal to all federal, state and local government web resources and services.